EW9965 Weather Reports


time (UTC)temp
C
wind
direction
speed
KPH
gust
KPH
rain 1hr
cm
rain 24hr
cm
rain mn
cm
humidity
%
barometer
mb
20260901154601 21 144 1.6 6.4 0.00 0.00 0.00 79 1014.7
20260901153055 20 67 0.0 0.0 0.00 0.00 0.00 83 1014.7
20260901151551 19 95 0.0 0.0 0.00 0.00 0.00 86 1014.6
20260901150048 18 144 0.0 0.0 0.00 0.00 0.00 88 1014.7
20260901144543 18 32 0.0 0.0 0.00 0.00 0.00 89 1014.7
20260901143039 17 88 0.0 0.0 0.00 0.00 0.00 89 1014.5
20260901141534 17 44 0.0 0.0 0.00 0.00 0.00 89 1014.4
20260901140031 16 44 0.0 0.0 0.00 0.00 0.00 88 1014.4
20260901134527 16 44 0.0 0.0 0.00 0.00 0.00 88 1014.4
20260901133032 16 44 0.0 0.0 0.00 0.00 0.00 88 1014.1
20260901131524 16 65 0.0 3.2 0.00 0.00 0.00 88 1014.0
20260901130023 16 9 0.0 6.4 0.00 0.00 0.00 88 1013.9
20260901124523 16 7 0.0 3.2 0.00 0.00 0.00 88 1013.9
20260901123024 17 11 0.0 3.2 0.00 0.00 0.00 87 1014.0
20260901121523 17 2 0.0 0.0 0.00 0.00 0.00 87 1013.9
20260901120021 17 26 0.0 0.0 0.00 0.00 0.00 87 1013.9
20260901114518 17 34 0.0 0.0 0.00 0.00 0.00 87 1013.9
20260901113017 17 34 0.0 0.0 0.00 0.00 0.00 86 1013.8
20260901111516 17 34 0.0 0.0 0.00 0.00 0.00 86 1013.7
20260901110014 17 34 0.0 0.0 0.00 0.00 0.00 86 1013.7
20260901104530 17 34 0.0 0.0 0.00 0.00 0.00 85 1013.7
20260901103012 17 34 0.0 0.0 0.00 0.00 0.00 85 1013.7
20260901101518 17 34 0.0 0.0 0.00 0.00 0.00 85 1013.9
20260901100010 18 34 0.0 0.0 0.00 0.00 0.00 84 1013.9
20260901094509 18 34 0.0 0.0 0.00 0.00 0.00 84 1014.0
20260901093008 18 34 0.0 0.0 0.00 0.00 0.00 84 1013.9
20260901091506 18 59 0.0 0.0 0.00 0.00 0.00 83 1013.6
20260901090008 18 59 0.0 0.0 0.00 0.00 0.00 82 1013.8
20260901084505 18 59 0.0 0.0 0.00 0.00 0.00 81 1013.7
20260901083100 18 30 0.0 0.0 0.00 0.00 0.00 81 1013.7
20260901081555 18 81 0.0 0.0 0.00 0.00 0.00 80 1013.9
20260901080053 19 81 0.0 0.0 0.00 0.00 0.00 80 1014.1
20260901074553 19 81 0.0 0.0 0.00 0.00 0.00 79 1014.0
20260901073050 19 81 0.0 0.0 0.00 0.00 0.00 79 1014.0
20260901071601 20 81 0.0 0.0 0.00 0.00 0.00 78 1014.0
20260901070045 20 95 0.0 3.2 0.00 0.00 0.00 78 1014.0
20260901064544 20 215 0.0 3.2 0.00 0.00 0.00 79 1013.9
20260901063043 20 149 0.0 6.4 0.00 0.00 0.00 77 1014.0
20260901061544 20 149 0.0 1.6 0.00 0.00 0.00 75 1013.8
20260901060040 20 149 0.0 0.0 0.00 0.00 0.00 74 1013.8
20260901054540 21 149 0.0 3.2 0.00 0.00 0.00 73 1013.6
20260901053041 21 149 0.0 0.0 0.00 0.00 0.00 72 1013.5
20260901051540 21 149 0.0 0.0 0.00 0.00 0.00 71 1013.6
20260901050038 21 149 0.0 0.0 0.00 0.00 0.00 71 1013.4
20260901044537 22 149 0.0 0.0 0.00 0.00 0.00 70 1013.5
20260901043046 22 197 0.0 0.0 0.00 0.00 0.00 70 1013.4
20260901041536 22 215 0.0 0.0 0.00 0.00 0.00 69 1013.4
20260901040035 23 197 0.0 1.6 0.00 0.00 0.00 69 1013.6
20260901034545 23 222 0.0 1.6 0.00 0.00 0.00 68 1013.4
20260901033048 23 213 0.0 1.6 0.00 0.00 0.00 67 1013.1
20260901031558 23 213 0.0 3.2 0.00 0.00 0.00 65 1013.0
20260901030036 24 236 0.0 8.0 0.00 0.00 0.00 63 1012.8
20260901024531 25 210 1.6 8.0 0.00 0.00 0.00 60 1012.6
20260901023031 25 237 3.2 8.0 0.00 0.00 0.00 58 1012.4
20260901021528 26 172 1.6 8.0 0.00 0.00 0.00 55 1012.1
20260901020033 26 260 3.2 11.3 0.00 0.00 0.00 53 1012.0
20260901014527 27 196 1.6 12.9 0.00 0.00 0.00 51 1011.9
20260901013034 27 237 3.2 9.7 0.00 0.00 0.00 49 1011.8
20260901011524 28 191 1.6 12.9 0.00 0.00 0.00 48 1011.8
20260901010030 28 205 3.2 11.3 0.00 0.00 0.00 47 1011.8
20260901004524 29 207 4.8 11.3 0.00 0.00 0.00 46 1011.7
20260901003020 30 251 3.2 12.9 0.00 0.00 0.00 46 1011.7
20260901001625 30 172 3.2 12.9 0.00 0.00 0.00 46 1011.7
20260901000016 30 256 4.8 14.5 0.00 0.00 0.00 45 1011.8
20260831234516 30 95 3.2 17.7 0.00 0.00 0.00 45 1011.8
20260831233015 30 189 6.4 19.3 0.00 0.00 0.00 44 1011.8
20260831231513 31 176 6.4 17.7 0.00 0.00 0.00 42 1011.9
20260831230013 31 242 8.0 16.1 0.00 0.00 0.00 41 1012.0
20260831224513 31 267 9.7 17.7 0.00 0.00 0.00 40 1012.2
20260831223012 31 253 6.4 20.9 0.00 0.00 0.00 38 1012.1
20260831221511 32 122 11.3 20.9 0.00 0.00 0.00 37 1012.3
20260831220012 32 243 9.7 20.9 0.00 0.00 0.00 38 1012.3
20260831214511 32 178 8.0 17.7 0.00 0.00 0.00 39 1012.3
20260831213013 32 242 9.7 19.3 0.00 0.00 0.00 38 1012.2
20260831211509 32 215 4.8 17.7 0.00 0.00 0.00 38 1012.3
20260831210008 32 169 8.0 19.3 0.00 0.00 0.00 39 1012.7
20260831204508 32 190 6.4 16.1 0.00 0.00 0.00 39 1012.6
20260831203007 32 203 1.6 12.9 0.00 0.00 0.00 39 1012.6
20260831201505 32 176 9.7 22.5 0.00 0.00 0.00 39 1012.7
20260831200004 32 184 4.8 14.5 0.00 0.00 0.00 38 1012.7
20260831194504 32 163 3.2 12.9 0.00 0.00 0.00 37 1012.8
20260831193001 32 174 9.7 19.3 0.00 0.00 0.00 39 1013.0
20260831191604 32 180 6.4 14.5 0.00 0.00 0.00 41 1013.1
20260831190107 32 167 4.8 16.1 0.00 0.00 0.00 41 1013.0
20260831184557 31 251 1.6 14.5 0.00 0.00 0.00 41 1013.2
20260831183050 31 132 6.4 14.5 0.00 0.00 0.00 44 1013.2
20260831181553 30 97 6.4 14.5 0.00 0.00 0.00 46 1013.3
20260831180043 30 245 6.4 12.9 0.00 0.00 0.00 47 1013.2
20260831174541 29 258 3.2 11.3 0.00 0.00 0.00 51 1013.3
20260831173036 28 271 1.6 9.7 0.00 0.00 0.00 53 1013.3
20260831171536 28 192 1.6 12.9 0.00 0.00 0.00 56 1013.2
20260831170028 27 164 0.0 12.9 0.00 0.00 0.00 59 1013.3
20260831164536 26 111 0.0 9.7 0.00 0.00 0.00 63 1013.2
20260831163019 25 226 3.2 9.7 0.00 0.00 0.00 65 1013.2
20260831161515 25 169 1.6 8.0 0.00 0.00 0.00 68 1013.3
20260831160010 24 186 1.6 8.0 0.00 0.00 0.00 71 1013.3